User: anonymous   Login
Location: Catacaguana
(10.4120°N, 66.7591°W)
Time: 14:01:20
(UTC+00:00)
Language:

Meteor 1-27 - Orbit

View from above orbital plane
View from above orbital plane
View from above satellite
View from above satellite

Ground track
Ground track

The orbit data is extracted from the following two-line orbital elements,

1 09903U 77024A   22227.76989121  .00000229  00000-0  12583-3 0  9994
2 09903  81.2533  54.0909 0038635   6.0225 354.1401 14.08325114330263
Epoch (UTC): 15 August 2022 18:28:38
Eccentricity: 0.0038635
inclination: 81.2533°
perigee height: 837 km
apogee height: 893 km
right ascension of ascending node: 54.0909°
argument of perigee: 6.0225°
revolutions per day: 14.08325114
mean anomaly at epoch: 354.1401°
orbit number at epoch: 33026

The dashed part of the orbit path shows where the satellite is in the earth's shadow,  

DLR